Location: Newark
(12.4436°N, 0.6167°W)
Time: 00:58:41
(UTC+00:00)

deb Explorer IX - Pass Details

Date: 12 December 2019
Orbit: 548 x 1101 km, 38.8° (Epoch: 17 January)

Event Time Altitude Azimuth Distance (km) Brightness Sun altitude
Rises 13:41:50 0° 250° (WSW) 2,832 ? 46.0°
Reaches altitude 10° 13:44:10 10° 259° (W) 1,991 ? 45.7°
Maximum altitude 13:48:23 36° 326° (NW) 1,084 ? 45.1°
Drops below altitude 10° 13:53:14 10° 32° (NNE) 2,290 ? 44.4°
Sets 13:56:06 0° 41° (NE) 3,323 ? 43.9°
